Weather in Hội An

Vietnam     15°52′45″N   108°19′52″E
temp.,
°C
wind,
m/s
gust,
m/s
humid.,
%
clouds,
%
prec.,
mm/h
press.,
hPa
HPBL,
m
13 august, sat
sat1301:00+26sw3486100 0.9 1007124
04:00+25sw3387100 0.0 1007114
07:00+26sw2383100 0.0 1008129
10:00+30ne116759 0.0 1008486
13:00+29ne4372100 0.1 1006392
16:00+30e33705 0.1 1005465
19:00+28ese127829 0.5 100699
22:00+27sw228293 0.3 1008112
14 august, sun
sun1401:00+26sw3383100 0.6 100794
04:00+26sw338389 0.0 1006107
07:00+27sw337717 0.0 1007159
10:00+31sse22635 0.0 1008476
13:00+31e54655 0.0 1006610
16:00+30e45705 0.1 1005425
19:00+28sse34815 0.1 1006187
22:00+27sw23826 0.1 1007125
15 august, mon
mon1501:00+26sw3484100 0.1 1006115
04:00+26sw34838 0.0 1004125
07:00+27sw337594 0.0 1006154
10:00+31e2163100 0.1 1006521
13:00+30ene4365100 0.1 1004447
16:00+30e446837 0.0 1003402
19:00+28sse23795 0.1 100596
22:00+27sw338270 0.3 1007103
16 august, tue
tue1601:00+26wsw448497 0.5 1005109
04:00+26sw4585100 0.0 1004124
07:00+27sw3479100 0.1 1005154
10:00+31ne1263100 0.0 1006509
13:00+30ne4466100 0.0 1004452
16:00+30ne447097 0.1 1002471
19:00+28sse337953 3.4 100591
22:00+25wsw5789100 3.3 1006160
17 august, wed
wed1701:00+25sw468733 3.7 1005141
04:00+26wsw33845 0.1 1004113
07:00+26sw338088 0.1 1006136
10:00+31ene116162 0.0 1006511
13:00+30ne546536 0.0 1004459
16:00+30ene446861 0.1 1003422
19:00+28sse467937 0.8 1005275
22:00+26sw458914 0.9 1006151